Location: Stockholm
(59.3293°N, 18.0686°E)
Time: 20:23:24
(UTC+02:00)

ISS - Pass Details

Date: 01 April 2019
Orbit: 408 x 410 km, 51.6° (Epoch: 25 April)

Event Time Altitude Azimuth Distance (km) Brightness Sun altitude
Rises 20:10:08 0° 255° (WSW) 2,339 1.1 -5.8°
Maximum altitude 20:15:04 20° 189° (S) 999 -1.9 -6.4°
Drops below altitude 10° 20:17:36 10° 139° (SE) 1,473 -1.5 -6.7°
Enters shadow 20:18:10 - 133° (SE) 1,660 -1.3 -6.8°
